Location: Hilton Head Island
(32.2163°N, 80.7526°W)
Time: 11:41:45
(UTC-05:00)

Vanguard 1 - All Passes

Search period start: 16 February 2026 00:00
Search period end: 26 February 2026 00:00
Orbit: 652 x 3820 km, 34.3° (Epoch: 13 February)

Date Brightness Start Highest point End Pass type
(mag) Time Alt. Az. Time Alt. Az. Time Alt. Az.
16 Feb - 01:49:08 10° WSW 01:54:46 11° SW 01:59:59 10° SW visible
16 Feb - 14:02:28 10° SSW 14:10:21 42° SE 14:24:13 10° ENE daylight
16 Feb - 16:20:58 10° WSW 16:32:23 88° SSE 16:53:16 10° ENE daylight
16 Feb - 18:42:17 10° W 18:58:31 85° N 19:22:30 10° E visible
16 Feb - 21:05:26 10° WNW 21:26:01 72° SSW 21:48:29 10° SE visible
16 Feb - 23:31:57 10° W 23:51:21 36° SW 00:08:25 10° SSE visible
17 Feb - 12:10:05 10° SE 12:10:34 10° SE 12:11:05 10° ESE daylight
17 Feb - 14:21:08 10° SW 14:29:21 54° SE 14:44:32 10° ENE daylight
17 Feb - 16:40:22 10° W 16:52:13 87° N 17:13:35 10° E daylight
17 Feb - 19:01:54 10° W 19:18:38 88° NNE 19:42:40 10° ESE visible
17 Feb - 21:25:14 10° WNW 21:45:45 63° SSW 22:07:40 10° SE visible
17 Feb - 23:53:05 10° W 00:10:28 28° SW 00:25:57 10° S visible
18 Feb - 12:24:36 10° SSE 12:29:08 17° SE 12:35:17 10° E daylight
18 Feb - 14:40:02 10° SW 14:48:33 66° SSE 15:04:44 10° ENE daylight
18 Feb - 16:59:50 10° W 17:12:08 84° N 17:33:57 10° E daylight
18 Feb - 19:21:29 10° WNW 19:38:41 86° SSW 20:02:40 10° ESE visible
18 Feb - 21:45:08 10° WNW 22:05:22 54° SW 22:26:34 10° SE visible
19 Feb - 00:15:12 10° W 00:29:34 20° SW 00:42:37 10° S visible
19 Feb - 12:42:09 10° S 12:47:48 26° SE 12:56:26 10° E daylight
19 Feb - 14:59:08 10° WSW 15:07:56 78° SSE 15:24:55 10° ENE daylight
19 Feb - 17:19:19 10° W 17:32:05 83° N 17:54:21 10° E daylight
19 Feb - 19:41:05 10° WNW 19:58:39 80° SSW 20:22:28 10° ESE visible
19 Feb - 22:05:14 10° WNW 22:24:51 46° SW 22:45:07 10° SSE visible
20 Feb - 00:39:28 10° WSW 00:48:41 14° SW 00:57:24 10° SSW visible
20 Feb - 13:00:23 10° SSW 13:06:34 36° SE 13:16:58 10° ENE daylight
20 Feb - 15:18:22 10° WSW 15:27:29 87° SSE 15:45:08 10° ENE daylight
20 Feb - 17:38:49 10° W 17:52:05 84° N 18:14:42 10° E daylight
20 Feb - 20:00:42 10° WNW 20:18:32 72° SSW 20:42:02 10° SE visible
20 Feb - 22:25:39 10° W 22:44:16 37° SW 23:03:15 10° SSE visible
21 Feb - 13:18:58 10° SW 13:25:30 48° SE 13:37:12 10° ENE daylight
21 Feb - 15:37:42 10° W 15:47:10 86° N 16:05:24 10° E daylight
21 Feb - 17:58:18 10° W 18:12:03 88° NNE 18:34:58 10° ESE visible
21 Feb - 20:20:23 10° WNW 20:38:19 63° SSW 21:01:20 10° SE visible
21 Feb - 22:46:33 10° W 23:03:37 29° SW 23:20:52 10° S visible
22 Feb - 11:23:36 10° SSE 11:25:48 12° SE 11:28:22 10° ESE daylight
22 Feb - 13:37:50 10° SW 13:44:37 62° SSE 13:57:19 10° ENE daylight
22 Feb - 15:57:05 10° W 16:06:56 83° N 16:25:45 10° E daylight
22 Feb - 18:17:47 10° WNW 18:31:58 87° SSW 18:55:06 10° ESE visible
22 Feb - 20:40:10 10° WNW 20:58:00 54° SSW 21:20:19 10° SE visible
22 Feb - 23:08:18 10° W 23:22:57 22° SW 23:37:41 10° S visible
23 Feb - 11:40:24 10° S 11:44:30 20° SE 11:50:07 10° E daylight
23 Feb - 13:56:53 10° WSW 14:03:55 75° SSE 14:17:23 10° ENE daylight
23 Feb - 16:16:30 10° W 16:26:44 82° N 16:46:08 10° E daylight
23 Feb - 18:37:17 10° WNW 18:51:51 80° SSW 19:15:02 10° ESE visible
23 Feb - 21:00:07 10° WNW 21:17:38 46° SW 21:38:55 10° SSE visible
23 Feb - 23:31:48 10° WSW 23:42:21 15° SW 23:52:53 10° SSW visible
24 Feb - 11:58:25 10° SSW 12:03:17 29° SE 12:10:41 10° E daylight
24 Feb - 14:16:04 10° WSW 14:23:22 87° SSE 14:37:28 10° ENE daylight
24 Feb - 16:35:54 10° W 16:46:34 84° N 17:06:30 10° E daylight
24 Feb - 18:56:47 10° WNW 19:11:39 71° SSW 19:34:42 10° SE visible
24 Feb - 21:20:22 10° W 21:37:12 37° SW 21:57:07 10° SSE visible
25 Feb - 12:16:57 10° SW 12:22:13 42° SE 12:30:51 10° ENE daylight
25 Feb - 14:35:22 10° W 14:42:56 86° N 14:57:37 10° E daylight
25 Feb - 16:55:19 10° W 17:06:22 88° N 17:26:49 10° ESE daylight
25 Feb - 19:16:21 10° WNW 19:31:25 62° SSW 19:54:05 10° SE visible
25 Feb - 21:41:05 10° W 21:56:45 29° SW 22:14:47 10° S visible
